Regional Weather Roundup
Issued by NWS

Home | Current Version | Previous Version | Text Only | Print | Product List | Glossary On
Versions: 1 2 3 4 5 6 7 8 9 10 11 12 13 14 15 16 17 18 19 20 21 22 23 24 25 26 27 28 29 30 31 32 33 34 35 36 37 38 39 40 41 42 43 44 45 46 47 48 49 50
000
ASUS43 KBIS 210602
RWRND

NORTH DAKOTA REGIONAL WEATHER ROUNDUP
NATIONAL WEATHER SERVICE BISMARCK ND
100 AM CDT THU SEP 21 2017

NOTE: "FAIR" INDICATES FEW OR NO CLOUDS BELOW 12,000 FEET WITH NO
SIGNIFICANT WEATHER AND/OR OBSTRUCTIONS TO VISIBILITY.


NDZ001>003-009>011-017-210700-
NORTHWEST NORTH DAKOTA

CITY           SKY/WX    TMP DP  RH WIND       PRES   REMARKS
WILLISTON      CLEAR     44  36  73 S3        29.65R
6HR MIN TEMP:  40; 6HR MAX TEMP:  64;

MINOT          MOCLDY    55  38  52 SE9       29.67S
MINOT AFB      PTCLDY    51  40  66 S7        29.65S
$$

NDZ018>021-031>035-040>046-210700-
SOUTHWEST NORTH DAKOTA

CITY           SKY/WX    TMP DP  RH WIND       PRES   REMARKS
BISMARCK       MOCLDY    57  40  52 SE8       29.74F
6HR MIN TEMP:  50; 6HR MAX TEMP:  69;

DICKINSON      CLOUDY    52  36  54 S7        29.68S
GARRISON         N/A     57  41  55 S12       29.69F
6HR MIN TEMP:  51; 6HR MAX TEMP:  65;

HETTINGER ARPT CLOUDY    52  34  50 SE6       29.74S
$$

NDZ004>008-012>016-024-026-027-054-210700-
NORTHEAST NORTH DAKOTA

CITY           SKY/WX    TMP DP  RH WIND       PRES   REMARKS
GRAND FORKS    CLEAR     54  45  71 S9        29.82R
GRND FRKS AFB  CLEAR     53  43  68 S8        29.81R
DEVILS LAKE    PTCLDY    57  44  62 S13       29.77S
$$

NDZ022-023-025-028>030-036>039-047>053-210700-
SOUTHEAST NORTH DAKOTA

CITY           SKY/WX    TMP DP  RH WIND       PRES   REMARKS
FARGO          CLEAR     58  44  60 S9        29.85S
6HR MIN TEMP:  58; 6HR MAX TEMP:  68;

JAMESTOWN      CLEAR     51  44  77 S7        29.80S
$$




USA.gov is the U.S. government's official web portal to all federal, state and local government web resources and services.